Location: Boiro
(42.6475°N, 8.8834°W)
Time: 02:55:25
(UTC+02:00)

UKube-1 - Pass Details

Date: 30 April 2024
Orbit: 583 x 591 km, 98.3° (Epoch: 23 May)

Event Time Altitude Azimuth Distance (km) Brightness Sun altitude
Rises 03:12:59 0° 19° (NNE) 2,831 ? -31.7°
Reaches altitude 10° 03:15:14 10° 26° (NNE) 1,924 ? -31.7°
Enters shadow 03:17:11 25° 40° (NE) 1,209 ? -31.6°
